CAPE
0 0 0 0 0 0 0 0 0 0 0 0 0 0 0 0 0 0 0 0 0 0 0 0 0 0 0 0 0 0 0 0 0 0 0 0 0 0 0 0 0 0 0
0 0 0 0 0 0 0 0 0 0 0 0 0 0 0 0 0 0 0 0 0 0 0 0 0 0 0 0 0 0 0 0 0 0 0 0 0 0 0 0 0 0 0
0 0 0 0 0 0 0 0 0 0 0 0 0 0 0 0 0 0 0 0 0 0 0 0 0 0 0 0 0 0 0 0 0 1 0 0 0 0 0 0 0 0 0
0 0 0 0 0 0 0 0 0 0 0 0 0 0 0 0 0 0 0 0 0 0 0 0 0 0 1 0 0 0 0 0 0 0 0 1 0 0 0 0 0 0 0
0 0 0 0 0 0 0 0 0 0 0 0 0 0 0 0 0 0 0 0 0 0 0 0 0 0 0 1 0 0 0 0 0 0 0 0 0 0 0 0 0 0 0
0 0 0 0 0 0 0 0 0 0 0 0 0 0 0 0 0 0 0 0 0 0 0 0 0 0 0 0 0 1 4 1 2 1 3 3 4 4 0 0 0 0 0
0 0 0 0 0 0 0 0 0 0 0 0 0 0 0 0 0 0 0 0 0 0 0 0 0 0 0 0 1 5 1 0 1 2 1 1 0 0 0 0 0 0 0
0 0 0 0 0 0 0 0 0 0 0 0 0 0 0 0 0 0 0 0 0 0 0 0 0 0 0 2 3 0 0 1 0 0 0 0 0 0 0 0 0 0 0
0 0 0 0 0 0 0 0 0 0 0 0 0 0 0 0 0 0 0 0 0 0 0 0 0 0 0 0 0 0 0 0 0 12 2 3 2 3 8 0 0 0 0
0 0 0 0 0 0 0 0 0 0 0 0 0 0 0 0 0 0 0 0 0 0 0 0 0 0 0 0 0 0 0 0 0 8 0 0 0 0 0 0 0 0 0
0 0 0 0 0 0 0 0 0 0 0 0 0 0 0 0 0 0 0 0 0 0 0 0 0 0 0 0 0 0 0 2 0 0 0 0 0 0 0 0 0 0 0
0 0 0 0 0 0 0 0 0 0 0 0 0 0 0 0 0 0 0 0 0 0 0 0 0 0 0 0 0 0 0 0 0 0 1 0 0 0 0 0 0 0 0
0 0 0 0 0 0 0 0 0 0 0 0 0 0 0 0 0 0 0 0 0 0 0 1 0 0 0 0 0 0 0 0 0 0 0 0 0 0 0 0 0 0 0
0 0 0 0 0 0 0 0 0 0 0 0 0 0 0 0 0 0 0 0 0 0 0 0 0 0 0 0 0 0 0 0 0 0 0 0 0 0 0 0 0 0 0
0 0 0 0 0 0 0 0 0 0 0 0 0 0 0 0 0 0 0 0 0 0 0 0 0 0 0 0 0 0 0 0 0 0 0 0 0 0 0 0 0 0 0
0 0 0 0 0 0 0 0 0 0 0 0 0 0 0 0 0 0 0 0 0 0 0 0 0 0 0 0 0 0 0 0 0 0 0 0 0 0 0 0 0 0 0
0 0 0 0 0 0 0 0 0 0 0 0 0 0 0 0 0 0 0 0 0 0 0 0 0 0 0 0 0 0 0 0 0 0 0 0 0 0 0 0 0 0 0
0 0 0 0 0 0 0 0 0 0 0 0 0 0 0 0 0 0 0 0 0 0 0 0 0 0 0 0 0 0 0 0 0 0 0 0 0 0 0 0 0 0 0
0 0 0 0 0 0 0 0 0 0 0 0 0 0 0 0 0 0 0 0 0 0 0 0 0 0 0 0 0 0 0 0 0 0 0 0 0 0 0 0 0 0 0
0 0 0 0 0 0 0 0 0 0 0 0 0 0 0 0 0 0 0 0 0 0 0 0 0 0 0 0 0 0 0 0 0 0 0 0 0 0 0 0 0 0 0
0 0 0 0 0 0 0 0 0 0 0 0 0 0 0 0 0 0 0 0 0 0 0 0 0 0 0 0 0 0 0 0 0 0 0 0 0 0 0 0 0 0 0
0 0 0 0 0 0 0 0 0 0 0 0 0 0 0 0 0 0 0 0 0 0 0 0 0 0 0 0 0 0 0 0 0 0 0 0 0 0 0 0 0 0 0
0 0 0 0 0 0 0 0 0 0 0 0 0 0 0 0 0 0 0 0 0 0 0 0 0 0 0 0 0 0 0 0 0 0 0 0 0 0 0 0 0 0 0
0 0 0 0 0 0 0 0 0 0 0 0 0 0 0 0 0 0 0 0 0 0 0 0 0 0 0 0 0 0 0 0 0 0 0 0 0 0 0 0 0 0 0
0 0 0 0 0 0 0 0 0 0 0 0 0 0 0 0 0 0 0 0 0 0 0 0 0 0 0 0 0 0 0 0 0 0 0 0 0 0 0 0 0 0 0
0 0 0 0 0 0 0 0 0 0 0 0 0 0 0 0 0 0 0 0 0 0 0 0 0 0 0 0 0 0 0 0 0 0 0 0 0 0 0 0 0 0 0
CIN
0 0 0 0 0 0 0 0 0 0 0 0 0 0 0 0 0 0 0 0 0 0 0 0 0 0 0 0 0 0 0 0 0 0 0 0 0 0 0 0 0 0 0
0 0 0 0 0 0 0 0 0 0 0 0 0 0 0 0 0 0 0 0 0 0 0 0 0 0 0 0 0 0 0 0 0 0 0 0 0 0 0 0 0 0 0
0 0 0 0 0 0 0 0 0 0 0 0 0 0 0 0 0 0 0 0 0 0 0 0 0 0 0 0 0 0 0 0 0 0 0 0 0 0 0 0 0 0 0
0 0 0 0 0 0 0 0 0 0 0 0 0 0 0 0 0 0 0 0 0 0 0 0 0 0 0 0 -1 0 0 0 0 0 0 0 0 0 0 0 0 0 0
0 0 0 0 0 0 0 0 0 0 0 0 0 0 0 0 0 0 0 0 0 0 0 0 0 0 0 0 -1 -1 -2 0 -1 0 0 0 -1 0 0 0 0 0 0
0 0 0 0 0 0 0 0 0 0 0 0 0 0 0 0 0 0 0 0 0 0 0 0 0 0 0 0 0 -1 0 -2 -1 -1 0 0 -1 -1 0 0 0 0 0
0 0 0 0 0 0 0 0 0 0 0 0 0 0 0 0 0 0 0 0 0 0 0 0 0 0 0 0 -2 0 -1 0 -1 -1 0 0 0 0 0 0 0 0 0
0 0 0 0 0 0 0 0 0 0 0 0 0 0 0 0 0 0 0 0 0 0 0 0 0 0 0 -1 -1 0 0 -1 0 0 0 0 0 0 0 0 0 0 0
0 0 0 0 0 0 0 0 0 0 0 0 0 0 0 0 0 0 0 0 0 0 0 0 0 0 0 -1 0 0 0 0 0 0 -2 -2 -1 -1 0 0 0 0 0
0 0 0 0 0 0 0 0 0 0 0 0 0 0 0 0 0 0 0 0 0 0 0 0 0 0 0 0 0 0 0 0 0 -1 0 0 0 0 0 0 0 0 0
0 0 0 0 0 0 0 0 0 0 0 0 0 0 0 0 0 0 0 0 0 0 0 0 0 -1 0 0 0 0 0 -1 0 0 0 0 0 0 0 0 0 0 0
0 0 0 0 0 0 0 0 0 0 0 0 0 0 0 0 0 0 0 -1 0 -1 0 0 -1 0 0 0 0 0 0 0 0 0 0 0 0 0 0 0 0 0 0
0 0 0 0 0 0 0 0 0 0 0 0 0 0 0 0 0 0 0 0 0 -1 0 -1 0 0 0 0 0 0 0 0 0 0 0 0 0 0 0 0 0 0 0
0 0 0 0 0 0 0 0 0 0 0 0 0 0 0 0 0 0 0 0 0 0 0 0 0 0 0 0 0 0 0 0 0 0 0 0 0 0 0 0 0 0 0
0 0 0 0 0 0 0 0 0 0 0 0 0 0 0 0 0 0 -1 0 -5 0 0 0 0 0 0 0 0 0 0 0 0 0 0 0 0 0 0 0 0 0 0
0 0 0 0 0 0 0 0 0 0 0 0 0 -1 0 0 0 0 0 -2 -1 0 0 0 0 0 0 0 0 0 0 0 0 0 0 0 0 0 0 0 0 0 0
0 0 0 0 0 0 0 0 0 0 0 0 0 0 0 0 0 0 0 0 0 0 0 0 0 0 0 0 0 0 0 0 0 0 0 0 0 0 0 0 0 0 0
0 0 0 0 0 0 0 0 0 0 0 0 0 0 0 0 0 0 0 0 0 0 0 0 0 0 0 0 0 0 0 0 0 0 0 0 0 0 0 0 0 0 0
0 0 0 0 0 0 0 0 0 0 0 0 0 0 0 0 0 0 0 0 0 0 0 0 0 0 0 0 0 0 0 0 0 0 0 0 0 0 0 0 0 0 0
0 0 0 0 0 0 0 0 0 0 0 0 0 0 0 0 0 0 0 0 0 0 0 0 0 0 0 0 0 0 0 0 0 0 0 0 0 0 0 0 0 0 0
0 0 0 0 0 0 0 0 0 0 0 0 0 0 0 0 0 0 0 0 0 0 0 0 0 0 0 0 0 0 0 0 0 0 0 0 0 0 0 0 0 0 0
0 0 0 0 0 0 0 0 0 0 0 0 0 0 0 0 0 0 0 0 0 0 0 0 0 0 0 0 0 0 0 0 0 0 0 0 0 0 0 0 0 0 0
0 0 0 0 0 0 0 0 0 0 0 0 0 0 0 0 0 0 0 0 0 0 0 0 0 0 0 0 0 0 0 0 0 0 0 0 0 0 0 0 0 0 0
0 0 0 0 0 0 0 0 0 0 0 0 0 0 0 0 0 0 0 0 0 0 0 0 0 0 0 0 0 0 0 0 0 0 0 0 0 0 0 0 0 0 0
0 0 0 0 0 0 0 0 0 0 0 0 0 0 0 0 0 0 0 0 0 0 0 0 0 0 0 0 0 0 0 0 0 0 0 0 0 0 0 0 0 0 0
0 0 0 0 0 0 0 0 0 0 0 0 0 0 0 0 0 0 0 0 0 0 0 0 0 0 0 0 0 0 0 0 0 0 0 0 0 0 0 0 0 0 0
Wind_Speed
19 21 23 25 26 27 28 29 32 33 35 36 38 38 39 40 40 40 40 40 41 42 43 44 44 44 43 42 40 38 38 37 42 45 43 44 45 44 43 42 41 40 38
20 21 23 25 27 28 30 32 33 35 36 36 37 38 39 39 39 40 41 42 44 45 44 44 45 44 44 42 42 42 41 38 43 51 51 49 47 45 45 44 42 40 39
20 22 25 26 28 30 32 33 34 35 36 37 38 39 39 39 39 40 41 42 42 42 43 44 44 45 46 45 45 46 44 43 44 48 54 50 49 46 47 43 42 40 37
22 24 26 28 29 30 32 33 34 35 36 37 37 38 38 38 38 40 40 41 41 41 41 42 43 45 46 47 48 48 48 49 48 49 51 52 50 46 45 48 48 39 41
22 24 27 28 29 31 32 33 34 35 35 36 37 38 38 38 39 41 41 42 43 43 42 43 43 44 45 47 48 50 51 51 51 52 52 52 51 50 49 46 47 44 42
23 25 27 28 29 31 32 33 34 35 36 36 37 37 39 38 41 43 43 43 44 45 47 47 46 46 47 48 48 48 49 51 53 52 52 53 53 49 46 46 44 45 45
24 26 27 29 30 32 33 34 34 35 34 36 37 38 39 39 42 43 44 42 44 45 47 48 49 48 49 50 51 51 49 46 45 47 50 49 50 47 45 45 45 45 45
25 27 28 30 31 31 32 32 32 33 35 36 36 38 39 40 42 43 45 43 44 46 47 48 50 52 51 54 56 56 54 51 47 44 42 46 45 43 41 41 42 43 42
26 28 30 30 30 29 31 32 32 33 34 35 36 38 39 40 42 45 46 45 47 47 47 49 50 51 53 56 57 58 58 54 48 44 44 46 48 47 37 35 39 41 44
26 27 26 26 28 29 29 30 31 32 34 35 36 37 38 40 42 44 46 47 48 49 49 49 50 53 56 58 57 57 59 57 54 51 50 49 46 44 35 35 36 39 40
23 24 25 25 26 27 29 30 31 33 34 36 37 37 39 40 42 44 46 47 49 52 52 53 52 54 58 58 57 54 54 56 56 53 52 50 45 40 36 34 32 32 34
21 22 24 25 27 28 30 30 31 34 36 38 39 40 40 41 43 44 47 47 51 51 53 53 53 58 59 58 56 57 57 55 51 51 49 46 43 39 35 32 30 30 29
21 24 25 26 27 27 29 32 34 35 37 40 41 42 44 43 43 45 47 50 51 51 50 54 56 58 58 56 56 56 54 51 50 48 46 44 40 36 31 28 26 27 29
24 25 25 26 27 29 31 32 34 36 38 40 42 44 44 44 45 46 48 49 50 50 53 53 55 55 54 53 53 51 49 48 47 44 41 38 35 32 30 28 28 29 31
24 25 26 28 30 31 32 33 35 35 36 40 40 42 45 46 46 48 50 51 51 53 54 54 56 56 57 56 54 50 49 47 44 41 38 37 33 30 29 28 29 31 32
24 26 28 30 31 32 34 36 34 34 36 36 37 40 42 42 45 48 49 50 52 52 51 56 57 56 55 54 52 50 47 44 41 39 36 33 31 30 30 29 29 31 34
26 28 29 31 32 34 35 38 40 37 35 35 37 40 40 44 46 48 48 50 48 47 52 53 53 53 52 50 47 46 44 41 38 36 33 32 31 31 32 32 31 31 32
27 29 31 31 32 34 35 36 37 39 41 40 37 40 41 44 46 46 49 48 50 48 49 51 51 49 48 46 44 42 41 39 36 34 32 32 32 33 34 33 32 30 29
28 30 30 31 32 33 34 35 35 37 38 40 41 41 43 44 43 45 45 48 50 51 50 49 47 46 44 43 40 38 38 35 34 32 32 32 33 32 32 32 30 27 26
28 29 30 31 32 33 33 34 36 37 38 40 42 44 45 44 47 48 46 47 48 48 47 47 45 43 42 40 38 37 35 33 32 31 32 32 32 31 32 32 29 27 24
29 29 30 31 31 32 33 34 35 36 38 40 41 41 41 45 48 47 47 47 47 47 46 44 43 41 39 38 36 35 32 31 30 30 31 32 32 33 31 29 25 23 20
29 29 29 30 31 31 32 32 33 35 37 41 41 40 42 44 45 45 46 45 44 43 42 41 40 38 37 36 34 32 29 28 27 29 30 30 32 31 28 25 22 19 18
27 28 29 30 30 30 31 31 32 34 37 40 41 43 43 44 45 45 45 44 43 42 40 38 36 36 34 32 30 28 25 24 23 24 27 29 31 29 25 21 18 17 16
26 27 29 29 29 29 29 31 33 35 38 40 41 42 43 44 45 44 43 42 41 39 36 34 33 33 33 32 28 25 22 20 19 21 24 27 29 27 23 19 17 15 14
25 26 27 27 27 28 29 32 35 37 38 40 42 42 43 43 43 43 42 40 38 36 34 32 30 30 31 30 27 24 21 19 18 18 22 24 26 24 20 17 15 14 13
25 25 25 24 25 27 30 33 36 37 39 40 42 43 43 43 43 42 40 38 35 33 31 29 27 28 28 28 27 24 21 19 17 16 16 21 23 22 19 17 14 13 12
Wind_Direction
345 347 347 347 347 347 347 345 343 343 342 340 340 340 340 339 339 339 339 339 338 335 334 331 331 331 331 331 330 328 325 321 314 313 318 320 319 319 320 319 318 316 314
345 347 347 346 345 344 343 342 341 340 341 341 341 341 341 341 341 341 339 337 335 334 334 334 333 334 332 333 331 329 326 324 318 315 317 318 317 318 317 316 315 314 311
346 345 344 343 342 341 341 341 342 341 341 342 342 342 341 341 341 340 340 340 340 339 338 337 336 335 333 332 331 328 326 324 321 316 315 317 317 317 316 316 314 313 311
341 341 340 340 341 342 342 342 342 343 342 343 344 344 344 343 343 343 342 342 342 342 341 339 338 337 334 333 330 328 327 324 323 320 317 316 317 317 315 314 312 313 310
338 339 340 342 342 342 343 343 344 344 344 344 344 344 344 344 344 343 343 342 341 341 340 339 338 336 335 333 330 329 328 325 323 320 318 317 316 315 313 313 310 310 308
339 339 341 341 343 343 343 342 342 343 343 343 344 343 343 345 344 343 343 342 341 340 338 338 338 337 335 333 331 330 328 325 323 321 319 317 315 314 313 310 309 308 305
337 339 340 341 341 341 342 342 342 342 343 342 343 344 344 345 344 343 343 342 341 340 339 338 337 337 335 334 332 330 328 326 324 322 319 318 315 314 312 309 306 303 300
335 337 338 339 339 340 342 342 343 343 343 344 345 345 345 344 343 342 342 342 341 341 340 339 338 336 336 334 332 330 329 327 324 321 318 319 316 313 310 307 306 303 302
332 334 336 338 340 342 342 342 345 345 345 345 345 344 344 344 343 342 342 341 340 340 341 340 339 338 338 336 334 331 329 328 327 322 319 319 317 314 307 308 306 305 302
331 334 339 341 340 342 344 345 345 345 344 344 344 344 344 343 343 343 343 341 340 339 340 340 340 338 337 336 335 332 329 327 326 323 321 319 317 315 309 305 304 302 302
336 337 339 342 344 344 343 344 343 343 343 342 341 343 343 343 344 344 343 341 340 338 338 338 338 337 336 336 335 333 330 327 325 322 320 318 316 313 310 307 306 305 304
339 342 342 343 342 342 341 342 343 341 340 340 340 340 342 343 343 342 342 341 340 338 337 337 337 336 336 336 336 334 332 331 328 325 323 321 319 316 313 309 306 306 307
342 340 340 339 340 341 340 339 339 339 339 339 339 339 339 340 341 341 341 340 339 338 338 337 336 336 336 336 337 336 336 335 333 330 328 326 324 321 319 316 313 311 310
335 335 337 336 338 339 338 338 337 337 337 337 337 337 338 339 340 340 340 339 339 339 338 338 338 338 339 339 339 340 340 338 337 335 334 333 332 329 323 317 311 312 310
332 334 334 335 335 335 336 336 335 336 336 336 337 338 338 337 339 339 338 338 339 338 338 339 340 340 339 340 341 342 341 341 341 341 339 338 337 336 331 326 319 311 308
330 331 331 332 332 333 333 334 337 337 338 338 339 339 339 338 338 338 339 340 340 340 341 340 340 341 341 342 342 342 343 343 343 342 342 343 342 339 334 329 324 316 308
326 328 329 329 330 331 332 333 333 336 339 339 339 339 340 339 340 340 341 341 342 344 342 342 342 342 343 343 343 343 343 344 344 345 345 344 342 338 333 328 325 320 314
324 325 327 328 329 330 331 332 334 334 334 336 339 340 341 341 341 342 342 342 342 345 343 343 343 344 344 344 344 345 345 345 346 346 345 343 340 337 332 330 328 325 321
323 324 326 327 329 330 331 332 333 334 334 335 337 339 341 342 342 343 345 344 342 342 343 344 345 345 345 345 346 346 346 347 347 347 346 343 340 338 336 333 331 329 327
323 325 326 327 328 329 330 331 332 333 334 335 336 338 340 342 341 342 344 343 343 343 344 344 345 345 345 347 347 348 348 349 349 348 346 342 341 340 336 330 329 330 328
323 324 326 326 327 329 330 331 332 333 334 335 337 340 341 341 341 341 342 343 343 344 344 345 345 346 347 348 349 350 350 350 351 349 345 343 342 334 329 332 343 341 345
323 324 325 326 328 329 330 331 332 333 335 335 338 341 342 342 342 342 342 343 344 345 345 345 345 347 348 350 351 352 352 353 353 351 348 347 336 328 334 345 352 357 354
322 324 325 326 328 329 330 332 333 335 336 336 338 339 341 341 342 342 342 343 345 345 346 346 347 348 350 352 354 355 354 355 355 354 351 346 328 327 343 355 7 8 359
322 324 325 326 328 330 332 333 334 336 336 337 338 339 340 341 341 342 343 344 345 346 347 348 349 349 351 353 355 357 357 357 358 356 352 344 325 330 347 1 11 18 18
324 326 327 328 329 331 332 334 334 335 336 337 338 339 340 341 342 343 343 345 345 347 348 350 351 351 352 353 354 356 358 359 360 0 355 343 327 331 346 0 15 25 25
326 327 328 330 331 333 334 333 334 336 336 338 338 339 340 341 341 342 343 344 345 347 348 349 350 350 351 353 354 356 359 0 359 358 0 348 332 329 340 348 10 18 27